THY110 LTFM-LTAC

Flight info

Callsign THY110
Flight time 0h 52m
Altitude 27000
Route VICEN1E/36 VICEN T380 ASMAP L333 LATGA
Aircraft A21N/M-SDE3FGHIRWY/LB1

Departure

Time 2026-05-04 19:17
Airport İstanbul Airport (LTFM)

Arrival

Time 2026-05-04 20:09
Airport Esenboğa International Airport (LTAC)
Time Latitude Longitude Altitude Speed Heading
2026-05-04 18:51 41.26015 28.74957 334 ft 0 kts 251°
2026-05-04 19:06 41.26015 28.74958 334 ft 1 kts 251°
2026-05-04 19:06 41.26020 28.74972 334 ft 0 kts 250°
2026-05-04 19:06 41.26017 28.74964 334 ft 0 kts 252°
2026-05-04 19:06 41.26019 28.74972 334 ft 2 kts 251°
2026-05-04 19:07 41.26024 28.74990 334 ft 2 kts 251°
2026-05-04 19:07 41.26029 28.75009 334 ft 1 kts 251°
2026-05-04 19:07 41.26032 28.75022 334 ft 2 kts 235°
2026-05-04 19:07 41.26044 28.75034 334 ft 2 kts 200°
2026-05-04 19:08 41.26059 28.75036 334 ft 1 kts 167°
2026-05-04 19:08 41.26065 28.75034 334 ft 1 kts 158°
2026-05-04 19:08 41.26067 28.75032 334 ft 0 kts 161°
2026-05-04 19:10 41.26066 28.75033 334 ft 0 kts 161°
2026-05-04 19:11 41.26055 28.75038 334 ft 2 kts 161°
2026-05-04 19:11 41.26037 28.75046 334 ft 3 kts 161°
2026-05-04 19:11 41.26009 28.75059 334 ft 4 kts 161°
2026-05-04 19:11 41.25971 28.75077 334 ft 6 kts 159°
2026-05-04 19:12 41.25930 28.75112 334 ft 7 kts 128°
2026-05-04 19:12 41.25945 28.75262 334 ft 9 kts 28°
2026-05-04 19:12 41.26016 28.75273 334 ft 10 kts 360°
2026-05-04 19:13 41.26094 28.75271 334 ft 11 kts 359°
2026-05-04 19:13 41.26179 28.75269 334 ft 11 kts
2026-05-04 19:13 41.26232 28.75339 334 ft 12 kts 90°
2026-05-04 19:13 41.26232 28.75454 334 ft 9 kts 89°
2026-05-04 19:14 41.26232 28.75468 334 ft 0 kts 89°
2026-05-04 19:14 41.26233 28.75475 334 ft 1 kts 89°
2026-05-04 19:14 41.26233 28.75498 334 ft 3 kts 89°
2026-05-04 19:15 41.26234 28.75536 334 ft 4 kts 89°
2026-05-04 19:15 41.26234 28.75590 334 ft 6 kts 89°
2026-05-04 19:15 41.26249 28.75653 334 ft 7 kts 45°
2026-05-04 19:15 41.26288 28.75669 334 ft 0 kts
2026-05-04 19:16 41.26291 28.75669 334 ft 0 kts
2026-05-04 19:16 41.26467 28.75665 334 ft 60 kts 357°
2026-05-04 19:16 41.27116 28.75648 334 ft 124 kts 358°
2026-05-04 19:16 41.28159 28.75634 373 ft 170 kts 358°
2026-05-04 19:17 41.29342 28.75642 949 ft 171 kts
2026-05-04 19:17 41.30451 28.76066 1706 ft 172 kts 33°
2026-05-04 19:17 41.31252 28.77131 2602 ft 164 kts 40°
2026-05-04 19:17 41.32184 28.78025 3109 ft 169 kts 24°
2026-05-04 19:18 41.33249 28.78786 3584 ft 181 kts 26°
2026-05-04 19:18 41.34404 28.79636 3962 ft 200 kts 26°
2026-05-04 19:18 41.35686 28.80576 4424 ft 216 kts 26°
2026-05-04 19:18 41.36963 28.81533 5281 ft 215 kts 30°
2026-05-04 19:19 41.38015 28.83001 5940 ft 234 kts 56°
2026-05-04 19:19 41.38411 28.85222 6436 ft 264 kts 81°
2026-05-04 19:19 41.38391 28.87673 7203 ft 268 kts 82°
2026-05-04 19:19 41.38375 28.90146 8006 ft 272 kts 87°
2026-05-04 19:20 41.37747 28.92566 8681 ft 297 kts 117°
2026-05-04 19:20 41.36157 28.94402 9413 ft 316 kts 149°
2026-05-04 19:20 41.33991 28.95051 10116 ft 326 kts 176°
2026-05-04 19:20 41.31704 28.95021 10635 ft 337 kts 179°
2026-05-04 19:21 41.29298 28.94937 10921 ft 354 kts 179°
2026-05-04 19:21 41.26768 28.94899 11214 ft 369 kts 178°
2026-05-04 19:21 41.24186 28.94798 11488 ft 385 kts 181°
2026-05-04 19:21 41.21432 28.94555 11752 ft 401 kts 182°
2026-05-04 19:22 41.18615 28.94285 12142 ft 410 kts 182°
2026-05-04 19:22 41.15758 28.94007 12744 ft 413 kts 183°
2026-05-04 19:22 41.12869 28.93730 13380 ft 414 kts 182°
2026-05-04 19:22 41.10017 28.93460 13961 ft 416 kts 181°
2026-05-04 19:23 41.07140 28.93195 14500 ft 420 kts 182°
2026-05-04 19:23 41.04179 28.93034 14987 ft 422 kts 174°
2026-05-04 19:23 41.01398 28.93962 15411 ft 416 kts 150°
2026-05-04 19:23 40.99085 28.96156 15916 ft 406 kts 130°
2026-05-04 19:24 40.97092 28.98835 16428 ft 408 kts 128°
2026-05-04 19:24 40.95098 29.01550 16866 ft 413 kts 128°
2026-05-04 19:24 40.93081 29.04246 17330 ft 416 kts 129°
2026-05-04 19:24 40.91023 29.06950 17788 ft 419 kts 129°
2026-05-04 19:25 40.88955 29.09640 18222 ft 423 kts 129°
2026-05-04 19:25 40.86842 29.12394 18677 ft 423 kts 128°
2026-05-04 19:25 40.85042 29.15411 19046 ft 417 kts 116°
2026-05-04 19:25 40.83775 29.18780 19457 ft 409 kts 104°
2026-05-04 19:26 40.82968 29.22356 19875 ft 406 kts 98°
2026-05-04 19:26 40.82284 29.25948 20230 ft 409 kts 97°
2026-05-04 19:26 40.81590 29.29620 20613 ft 412 kts 97°
2026-05-04 19:26 40.80880 29.33282 20994 ft 414 kts 97°
2026-05-04 19:27 40.80163 29.36920 21370 ft 415 kts 97°
2026-05-04 19:27 40.79430 29.40611 21725 ft 417 kts 97°
2026-05-04 19:27 40.78685 29.44345 22054 ft 420 kts 97°
2026-05-04 19:27 40.77945 29.48047 22376 ft 422 kts 97°
2026-05-04 19:28 40.77197 29.51786 22717 ft 424 kts 97°
2026-05-04 19:28 40.76442 29.55548 23063 ft 425 kts 97°
2026-05-04 19:28 40.75692 29.59274 23354 ft 427 kts 97°
2026-05-04 19:28 40.74920 29.63109 23628 ft 430 kts 96°
2026-05-04 19:29 40.74204 29.66919 23959 ft 428 kts 95°
2026-05-04 19:29 40.73694 29.70713 24267 ft 425 kts 90°
2026-05-04 19:29 40.73393 29.74589 24515 ft 424 kts 86°
2026-05-04 19:29 40.73284 29.78442 24798 ft 423 kts 84°
2026-05-04 19:30 40.73215 29.82344 25096 ft 425 kts 84°
2026-05-04 19:30 40.73154 29.86235 25354 ft 427 kts 84°
2026-05-04 19:30 40.73088 29.90132 25621 ft 429 kts 84°
2026-05-04 19:30 40.73018 29.94039 25881 ft 431 kts 84°
2026-05-04 19:31 40.72941 29.97993 26128 ft 433 kts 84°
2026-05-04 19:31 40.72827 30.01968 26378 ft 437 kts 87°
2026-05-04 19:31 40.72464 30.05916 26640 ft 443 kts 91°
2026-05-04 19:31 40.71812 30.09888 26879 ft 450 kts 97°
2026-05-04 19:32 40.70880 30.13854 27002 ft 456 kts 101°
2026-05-04 19:32 40.69841 30.17825 27009 ft 455 kts 101°
2026-05-04 19:32 40.68798 30.21724 27006 ft 454 kts 102°
2026-05-04 19:32 40.67785 30.25625 27009 ft 452 kts 99°
2026-05-04 19:33 40.66957 30.29580 27008 ft 448 kts 96°
2026-05-04 19:33 40.66342 30.33582 27009 ft 444 kts 91°
2026-05-04 19:33 40.65934 30.37573 27002 ft 442 kts 89°
2026-05-04 19:33 40.65599 30.41584 26994 ft 441 kts 88°
2026-05-04 19:34 40.65274 30.45576 26989 ft 440 kts 88°
2026-05-04 19:34 40.64948 30.49575 26989 ft 441 kts 88°
2026-05-04 19:34 40.64617 30.53606 26983 ft 440 kts 88°
2026-05-04 19:34 40.64282 30.57607 26974 ft 440 kts 88°
2026-05-04 19:35 40.63948 30.61570 26968 ft 440 kts 88°
2026-05-04 19:35 40.63607 30.65575 26963 ft 440 kts 89°
2026-05-04 19:35 40.63163 30.69539 26958 ft 442 kts 92°
2026-05-04 19:35 40.62556 30.73539 26955 ft 446 kts 95°
2026-05-04 19:36 40.61791 30.77497 26945 ft 448 kts 97°
2026-05-04 19:36 40.60968 30.81414 26938 ft 448 kts 97°
2026-05-04 19:36 40.60138 30.85332 26934 ft 447 kts 97°
2026-05-04 19:36 40.59302 30.89276 26937 ft 449 kts 98°
2026-05-04 19:37 40.58459 30.93254 26934 ft 447 kts 98°
2026-05-04 19:37 40.57621 30.97186 26929 ft 448 kts 97°
2026-05-04 19:37 40.56788 31.01097 26931 ft 448 kts 97°
2026-05-04 19:37 40.55955 31.05013 26937 ft 447 kts 97°
2026-05-04 19:38 40.55111 31.08968 26934 ft 447 kts 97°
2026-05-04 19:38 40.54275 31.12869 26935 ft 447 kts 98°
2026-05-04 19:38 40.53430 31.16810 26928 ft 447 kts 97°
2026-05-04 19:38 40.52591 31.20714 26932 ft 448 kts 98°
2026-05-04 19:39 40.51740 31.24669 26931 ft 447 kts 98°
2026-05-04 19:39 40.50901 31.28552 26927 ft 448 kts 98°
2026-05-04 19:39 40.50330 31.31189 26921 ft 448 kts 98°
2026-05-04 19:39 40.49195 31.36417 26919 ft 446 kts 98°
2026-05-04 19:40 40.48351 31.40304 26910 ft 448 kts 97°
2026-05-04 19:40 40.47493 31.44251 26910 ft 449 kts 98°
2026-05-04 19:40 40.46630 31.48201 26903 ft 448 kts 98°
2026-05-04 19:40 40.45788 31.52065 26902 ft 448 kts 98°
2026-05-04 19:41 40.44929 31.55991 26897 ft 448 kts 98°
2026-05-04 19:41 40.44066 31.59943 26900 ft 448 kts 98°
2026-05-04 19:41 40.43211 31.63845 26891 ft 448 kts 98°
2026-05-04 19:41 40.42343 31.67802 26884 ft 449 kts 99°
2026-05-04 19:42 40.41479 31.71734 26885 ft 449 kts 98°
2026-05-04 19:42 40.40608 31.75684 26886 ft 449 kts 99°
2026-05-04 19:42 40.39745 31.79595 26879 ft 449 kts 99°
2026-05-04 19:42 40.38876 31.83522 26876 ft 449 kts 99°
2026-05-04 19:43 40.38010 31.87439 26889 ft 450 kts 99°
2026-05-04 19:43 40.37132 31.91399 26884 ft 451 kts 99°
2026-05-04 19:43 40.36264 31.95301 26877 ft 450 kts 99°
2026-05-04 19:43 40.35385 31.99226 26880 ft 450 kts 99°
2026-05-04 19:44 40.34494 32.03195 26878 ft 449 kts 99°
2026-05-04 19:44 40.33620 32.07070 26887 ft 449 kts 99°
2026-05-04 19:44 40.32745 32.10965 26890 ft 449 kts 100°
2026-05-04 19:44 40.31861 32.14895 26892 ft 448 kts 100°
2026-05-04 19:45 40.31165 32.18832 26890 ft 439 kts 91°
2026-05-04 19:45 40.31131 32.22772 26797 ft 430 kts 79°
2026-05-04 19:45 40.31725 32.26543 26064 ft 425 kts 68°
2026-05-04 19:45 40.32836 32.30059 25511 ft 418 kts 63°
2026-05-04 19:46 40.34006 32.33525 24970 ft 414 kts 64°
2026-05-04 19:46 40.35158 32.36922 24432 ft 409 kts 64°
2026-05-04 19:46 40.36264 32.40347 23851 ft 405 kts 69°
2026-05-04 19:46 40.36729 32.43950 23282 ft 405 kts 86°
2026-05-04 19:47 40.36350 32.47587 22737 ft 405 kts 102°
2026-05-04 19:47 40.35174 32.50958 22207 ft 410 kts 118°
2026-05-04 19:47 40.33537 32.53951 21911 ft 402 kts 122°
2026-05-04 19:47 40.31924 32.56879 21527 ft 393 kts 122°
2026-05-04 19:48 40.30346 32.59749 21162 ft 384 kts 122°
2026-05-04 19:48 40.28813 32.62532 20888 ft 373 kts 122°
2026-05-04 19:48 40.27322 32.65229 20693 ft 361 kts 123°
2026-05-04 19:48 40.25884 32.67835 20492 ft 350 kts 123°
2026-05-04 19:49 40.24471 32.70401 20305 ft 339 kts 123°
2026-05-04 19:49 40.23131 32.72824 20229 ft 325 kts 123°
2026-05-04 19:49 40.21836 32.75169 20158 ft 312 kts 123°
2026-05-04 19:49 40.20583 32.77434 20090 ft 298 kts 123°
2026-05-04 19:50 40.19625 32.79710 19966 ft 282 kts 103°
2026-05-04 19:50 40.19540 32.82223 19854 ft 277 kts 79°
2026-05-04 19:50 40.20270 32.84563 19396 ft 283 kts 56°
2026-05-04 19:50 40.21697 32.86335 18868 ft 289 kts 38°
2026-05-04 19:51 40.23331 32.87846 18404 ft 289 kts 38°
2026-05-04 19:51 40.24943 32.89365 18051 ft 286 kts 38°
2026-05-04 19:51 40.26540 32.90880 17763 ft 281 kts 38°
2026-05-04 19:51 40.28113 32.92377 17427 ft 278 kts 38°
2026-05-04 19:52 40.29667 32.93858 17086 ft 276 kts 38°
2026-05-04 19:52 40.31218 32.95339 16750 ft 273 kts 38°
2026-05-04 19:52 40.32751 32.96802 16421 ft 272 kts 38°
2026-05-04 19:52 40.34266 32.98251 16076 ft 272 kts 38°
2026-05-04 19:53 40.35795 32.99714 15721 ft 271 kts 38°
2026-05-04 19:53 40.37298 33.01152 15388 ft 269 kts 38°
2026-05-04 19:53 40.38810 33.02600 15043 ft 268 kts 38°
2026-05-04 19:53 40.40301 33.04028 14708 ft 267 kts 38°
2026-05-04 19:54 40.41792 33.05455 14379 ft 265 kts 38°
2026-05-04 19:54 40.43290 33.06893 14032 ft 264 kts 38°
2026-05-04 19:54 40.44763 33.08305 13672 ft 263 kts 38°
2026-05-04 19:54 40.46102 33.09866 13257 ft 259 kts 57°
2026-05-04 19:55 40.46680 33.12084 12545 ft 266 kts 90°
2026-05-04 19:55 40.46271 33.14430 11892 ft 272 kts 116°
2026-05-04 19:55 40.45097 33.16363 11389 ft 273 kts 141°
2026-05-04 19:55 40.43411 33.17423 10984 ft 273 kts 167°
2026-05-04 19:56 40.41535 33.17394 10784 ft 268 kts 190°
2026-05-04 19:56 40.39735 33.16808 10516 ft 264 kts 192°
2026-05-04 19:56 40.37966 33.16209 10162 ft 263 kts 192°
2026-05-04 19:56 40.36202 33.15626 9819 ft 261 kts 192°
2026-05-04 19:57 40.34426 33.15053 9428 ft 262 kts 192°
2026-05-04 19:57 40.32661 33.14494 8995 ft 265 kts 192°
2026-05-04 19:57 40.30849 33.13923 8448 ft 272 kts 192°
2026-05-04 19:57 40.28974 33.13336 7962 ft 275 kts 192°
2026-05-04 19:58 40.27118 33.13202 7726 ft 270 kts 167°
2026-05-04 19:58 40.25400 33.14166 7657 ft 271 kts 146°
2026-05-04 19:58 40.23856 33.15567 7573 ft 264 kts 139°
2026-05-04 19:58 40.22713 33.17433 7486 ft 265 kts 110°
2026-05-04 19:59 40.22391 33.19729 7401 ft 261 kts 83°
2026-05-04 19:59 40.22951 33.21940 7296 ft 256 kts 54°
2026-05-04 19:59 40.24241 33.23474 7193 ft 254 kts 26°
2026-05-04 19:59 40.25948 33.23977 7090 ft 254 kts 357°
2026-05-04 20:00 40.27700 33.23581 7000 ft 254 kts 351°
2026-05-04 20:00 40.29454 33.23667 6881 ft 253 kts 17°
2026-05-04 20:00 40.31028 33.24654 6790 ft 253 kts 30°
2026-05-04 20:00 40.32536 33.25878 6689 ft 253 kts 32°
2026-05-04 20:01 40.34005 33.27123 6588 ft 252 kts 32°
2026-05-04 20:01 40.35474 33.28381 6486 ft 252 kts 32°
2026-05-04 20:01 40.36989 33.29487 6370 ft 250 kts 17°
2026-05-04 20:01 40.38720 33.29625 6263 ft 250 kts 347°
2026-05-04 20:02 40.40257 33.28618 6161 ft 253 kts 319°
2026-05-04 20:02 40.41236 33.26704 6058 ft 257 kts 289°
2026-05-04 20:02 40.41374 33.24406 5969 ft 254 kts 260°
2026-05-04 20:02 40.40636 33.22375 5945 ft 241 kts 229°
2026-05-04 20:03 40.39398 33.21021 5946 ft 226 kts 213°
2026-05-04 20:03 40.38041 33.20001 5956 ft 223 kts 208°
2026-05-04 20:03 40.36655 33.19121 5960 ft 223 kts 205°
2026-05-04 20:03 40.35233 33.18267 5962 ft 224 kts 205°
2026-05-04 20:04 40.33802 33.17421 5965 ft 224 kts 205°
2026-05-04 20:04 40.32391 33.16591 5960 ft 224 kts 205°
2026-05-04 20:04 40.30953 33.15821 5982 ft 224 kts 199°
2026-05-04 20:04 40.29474 33.15142 6057 ft 224 kts 203°
2026-05-04 20:05 40.28112 33.14227 5982 ft 211 kts 213°
2026-05-04 20:05 40.26984 33.13224 5958 ft 182 kts 218°
2026-05-04 20:05 40.25994 33.12253 5949 ft 177 kts 219°
2026-05-04 20:05 40.24970 33.11243 5804 ft 190 kts 219°
2026-05-04 20:06 40.23906 33.10213 5552 ft 188 kts 218°
2026-05-04 20:06 40.22894 33.09249 5274 ft 174 kts 218°
2026-05-04 20:06 40.21952 33.08358 5012 ft 158 kts 218°
2026-05-04 20:06 40.21090 33.07541 4793 ft 150 kts 218°
2026-05-04 20:07 40.20255 33.06749 4615 ft 149 kts 218°
2026-05-04 20:07 40.19426 33.05960 4432 ft 148 kts 218°
2026-05-04 20:07 40.18592 33.05167 4240 ft 146 kts 217°
2026-05-04 20:07 40.17762 33.04410 4037 ft 145 kts 217°
2026-05-04 20:08 40.16950 33.03643 3830 ft 143 kts 219°
2026-05-04 20:08 40.16172 33.02842 3638 ft 142 kts 219°
2026-05-04 20:08 40.15394 33.02062 3460 ft 141 kts 216°
2026-05-04 20:08 40.14597 33.01308 3296 ft 140 kts 212°
2026-05-04 20:09 40.13786 33.00594 3144 ft 139 kts 218°
2026-05-04 20:09 40.13075 32.99913 3125 ft 106 kts 218°
2026-05-04 20:09 40.12615 32.99472 3123 ft 56 kts 216°
2026-05-04 20:09 40.12387 32.99265 3121 ft 27 kts 206°
2026-05-04 20:10 40.12212 32.99204 3121 ft 25 kts 188°
2026-05-04 20:10 40.12046 32.99180 3123 ft 22 kts 186°
2026-05-04 20:10 40.11916 32.99109 3122 ft 19 kts 213°
2026-05-04 20:10 40.11842 32.99047 3121 ft 11 kts 195°
2026-05-04 20:11 40.11777 32.99088 3121 ft 10 kts 136°
2026-05-04 20:11 40.11713 32.99123 3122 ft 10 kts 172°
2026-05-04 20:11 40.11650 32.99151 3123 ft 5 kts 152°
2026-05-04 20:11 40.11633 32.99164 3123 ft 0 kts 151°